Find Starlink 5013

NORAD ID: 55492 Int'l Des: 2023-015 Owner: SPXS Country: US Constellation: starlink operational
LEOCIRCULAR

現在のビュー

3D地球を読み込み中...

Starlink 5013について

説明を読み込み中...

次回通過

Passes for default location (London). Set your location on the main map for personalized predictions.

高度履歴

Loading altitude history...

軌道要素

1 55492U 23015AV 26149.30538100 .00000029 00000-0 10565-4 0 9990
2 55492 43.0026 244.5081 0001146 269.4152 90.6568 15.27576148182929
Epoch: May 29, 2026 • Age: 28 hours

現在のステータス

高度 483.6 km
速度 7.63 km/s
衛星直下点 27.05°N, 153.56°W
打ち上げ日 Feb 2, 2023
運用期間 3.3 years
タイプ internet

技術仕様

分類 Payload
質量 305.00 kg
乾燥質量 290.00 kg
総質量 305.00 kg
長さ 0.20 m
直径 2.80 m
スパン 9.00 m
形状 Box + pan
製造者 SPXS
バスタイプ Starlink
フェーズステータス In Orbit
所有者/国 SPXS/US

Most Searched